Regional Weather Roundup
Issued by NWS

Home | Current Version | Previous Version | Graphics & Text | Print | Product List | Glossary On
Versions: 1 2 3 4 5 6 7 8 9 10 11 12 13 14 15 16 17 18 19 20 21 22 23 24 25 26 27 28 29 30 31 32 33 34 35 36 37 38 39 40 41 42 43 44 45 46 47 48 49 50
000
ASUS45 KABQ 181610
RWRNM
NEW MEXICO REGIONAL WEATHER ROUNDUP
NATIONAL WEATHER SERVICE ALBUQUERQUE NM
900 AM MST SAT NOV 18 2017

NOTE: "FAIR" MEANS FEW OR NO CLOUDS BELOW 12,000 FEET AGL WITH NO
       SIGNIFICANT WEATHER OR OBSTRUCTIONS TO VISION.

      THIS PRODUCT IS RELEASED AS TWO VERSIONS.  ONE VERSION NEAR
      THE TOP OF THE HOUR CONTAINING PRELIMINARY DATA FROM ALBUQUERQUE
      AND OTHER STATIONS.  A FINAL VERSION WITH ADDITIONAL DATA IS
      ISSUED ABOUT 10 MINUTES AFTER THE HOUR.

NMZ501-503-504-510>518-181700-
NORTHWEST PLATEAU/NORTHCENTRAL MOUNTAINS

CITY           SKY/WX    TMP DP  RH WIND       PRES   REMARKS
FARMINGTON     FAIR      31  15  52 SW7       30.35R WCI  24
LOS ALAMOS     FAIR      33  11  39 N9G18     30.31R WCI  26
SANTA FE       FAIR      38  15  39 N18G24    30.30R WCI  28
TAOS           FAIR      34   4  28 N16       30.33R WCI  24
ANGEL FIRE     FAIR      29   6  38 CALM      30.29R

$$
NMZ402-403-502-505>509-181700-
WESTCENTRAL MOUNTAINS/SOUTHWEST MOUNTAINS

CITY           SKY/WX    TMP DP  RH WIND       PRES   REMARKS
GALLUP         FAIR      33  16  49 NE5       30.37R WCI  29
GRANTS         FAIR      33  11  40 N13       30.39R WCI  24
SILVER CITY    FAIR      53  28  37 CALM      30.26R

$$
NMZ407-409-411-412-181700-
SOUTHERN DESERTS

CITY           SKY/WX    TMP DP  RH WIND       PRES   REMARKS
DEMING         FAIR      60  31  33 CALM      30.24R
LAS CRUCES     FAIR      58  31  36 N15G22    30.23R
HOLLOMAN AFB   FAIR      60  28  30 N21       30.25R
ALAMOGORDO     FAIR      57  27  30 N25G31    30.22R
T OR C         FAIR      49  24  37 N15       30.28R

$$
NMZ519>523-181700-
CENTRAL VALLEYS/CENTRAL HIGHLANDS

CITY           SKY/WX    TMP DP  RH WIND       PRES   REMARKS
ALBUQUERQUE    FAIR      39   9  29 N14       30.36R WCI  31
MORIARTY ARPT  FAIR      42  13  31 NW16      30.33R
CLINES CORNERS NOT AVBL
BELEN          FAIR      41   8  25 N9        30.36R
SOCORRO        FAIR      44  11  26 N18G25    30.31S

$$
NMZ524>526-539-540-181700-
SOUTHCENTRAL MOUNTAINS

CITY           SKY/WX    TMP DP  RH WIND       PRES   REMARKS
RUIDOSO        FAIR      41  16  36 NW13      30.31R

$$
NMZ527>531-181700-
NORTHEAST HIGHLANDS/NORTHEAST PLAINS

CITY           SKY/WX    TMP DP  RH WIND       PRES   REMARKS
LAS VEGAS      FAIR      36  24  62 E8        30.28R WCI  30
RATON          FAIR      38  12  34 N13       30.24R WCI  30
CLAYTON        FAIR      38  19  46 N24G36    30.24R WCI  27

$$
NMZ532>537-181700-
EASTCENTRAL PLAINS

CITY           SKY/WX    TMP DP  RH WIND       PRES   REMARKS
SANTA ROSA     FAIR      45  24  42 NE16G25   30.27R
TUCUMCARI      FAIR      48  22  35 N22G30    30.27R
CANNON AFB     FAIR      46  23  40 N31G41    30.28R
CLOVIS AIRPORT FAIR      46  21  37 N33G41    30.29R

$$
NMZ028-029-538-181700-
SOUTHEAST PLAINS

CITY           SKY/WX    TMP DP  RH WIND       PRES   REMARKS
ROSWELL        FAIR      52  32  46 NE21G28   30.26R
ARTESIA        FAIR      59  19  21 N32G47    30.23R
CARLSBAD       FAIR      61  30  31 N33G41    30.20R
HOBBS          SUNNY     52  30  43 NE25G38   30.25R


$$



USA.gov is the U.S. government's official web portal to all federal, state and local government web resources and services.